| time (UTC) | temp F | wind direction | speed MPH | gust MPH | rain 1hr in | rain 24hr in | rain mn in | humidity % | barometer mb |
| 20260504060228 | 65 | 84 | 7.0 | 20.0 | 0.00 | 0.00 | 0.00 | 64 | 1007.9 |
| 20260504050528 | 66 | 286 | 8.0 | 17.0 | 0.00 | 0.00 | 0.00 | 61 | 1008.1 |
| 20260504050014 | 66 | 15 | 8.0 | 19.0 | 0.00 | 0.00 | 0.00 | 62 | 1007.9 |
| 20260504045518 | 66 | 323 | 8.0 | 19.0 | 0.00 | 0.00 | 0.00 | 61 | 1007.9 |
| 20260504045015 | 65 | 326 | 8.0 | 19.0 | 0.00 | 0.00 | 0.00 | 61 | 1007.9 |
| 20260504044515 | 65 | 318 | 8.0 | 19.0 | 0.00 | 0.00 | 0.00 | 61 | 1008.0 |
| 20260504044017 | 65 | 328 | 7.0 | 14.0 | 0.00 | 0.00 | 0.00 | 62 | 1008.0 |
| 20260504042837 | 66 | 303 | 6.0 | 18.0 | 0.00 | 0.00 | 0.00 | 61 | 1008.2 |
| 20260504041723 | 66 | 2 | 7.0 | 18.0 | 0.00 | 0.00 | 0.00 | 61 | 1008.1 |
| 20260504041232 | 66 | 342 | 6.0 | 18.0 | 0.00 | 0.00 | 0.00 | 60 | 1008.0 |
| 20260504040127 | 67 | 305 | 6.0 | 16.0 | 0.00 | 0.00 | 0.00 | 59 | 1008.2 |
| 20260504035017 | 66 | 169 | 6.0 | 20.0 | 0.00 | 0.00 | 0.00 | 59 | 1008.2 |
| 20260504034506 | 66 | 332 | 7.0 | 20.0 | 0.00 | 0.00 | 0.00 | 59 | 1008.2 |
| 20260504032052 | 66 | 14 | 6.0 | 17.0 | 0.00 | 0.00 | 0.00 | 59 | 1008.3 |
| 20260504031544 | 66 | 43 | 6.0 | 17.0 | 0.00 | 0.00 | 0.00 | 57 | 1008.2 |
| 20260504031039 | 66 | 327 | 6.0 | 17.0 | 0.00 | 0.00 | 0.00 | 59 | 1008.3 |
| 20260504030536 | 66 | 281 | 8.0 | 17.0 | 0.00 | 0.00 | 0.00 | 58 | 1008.3 |
| 20260504030041 | 65 | 345 | 8.0 | 16.0 | 0.00 | 0.00 | 0.00 | 59 | 1008.3 |
| 20260504025527 | 65 | 351 | 7.0 | 17.0 | 0.00 | 0.00 | 0.00 | 60 | 1008.6 |
| 20260504025013 | 65 | 305 | 8.0 | 17.0 | 0.00 | 0.00 | 0.00 | 60 | 1008.6 |
| 20260504024518 | 66 | 346 | 6.0 | 18.0 | 0.00 | 0.00 | 0.00 | 60 | 1008.5 |
| 20260504024027 | 66 | 273 | 6.0 | 18.0 | 0.00 | 0.00 | 0.00 | 61 | 1008.7 |
| 20260504023523 | 66 | 318 | 7.0 | 21.0 | 0.00 | 0.00 | 0.00 | 61 | 1008.9 |
| 20260504023013 | 66 | 320 | 5.0 | 21.0 | 0.00 | 0.00 | 0.00 | 61 | 1008.9 |
| 20260504022511 | 65 | 315 | 6.0 | 21.0 | 0.00 | 0.00 | 0.00 | 62 | 1008.9 |
| 20260504021955 | 65 | 342 | 6.0 | 21.0 | 0.00 | 0.00 | 0.00 | 62 | 1009.1 |
| 20260504021440 | 65 | 349 | 6.0 | 17.0 | 0.00 | 0.00 | 0.00 | 62 | 1009.2 |
| 20260504020948 | 65 | 300 | 6.0 | 16.0 | 0.00 | 0.00 | 0.00 | 63 | 1009.2 |
| 20260504020447 | 65 | 350 | 6.0 | 14.0 | 0.00 | 0.00 | 0.00 | 62 | 1009.3 |
| 20260504015927 | 65 | 333 | 6.0 | 14.0 | 0.00 | 0.00 | 0.00 | 62 | 1009.4 |
| 20260504015408 | 65 | 48 | 7.0 | 18.0 | 0.00 | 0.00 | 0.00 | 63 | 1009.5 |
| 20260504014916 | 64 | 4 | 6.0 | 18.0 | 0.00 | 0.00 | 0.00 | 63 | 1009.7 |
| 20260504014419 | 64 | 322 | 6.0 | 19.0 | 0.00 | 0.00 | 0.00 | 64 | 1009.7 |
| 20260504013915 | 64 | 290 | 7.0 | 19.0 | 0.00 | 0.00 | 0.00 | 64 | 1009.7 |
| 20260504012742 | 64 | 338 | 6.0 | 16.0 | 0.00 | 0.00 | 0.00 | 64 | 1009.8 |
| 20260504012225 | 64 | 11 | 5.0 | 17.0 | 0.00 | 0.00 | 0.00 | 66 | 1009.7 |
| 20260504011706 | 63 | 25 | 7.0 | 17.0 | 0.00 | 0.01 | 0.00 | 66 | 1009.8 |
| 20260504011149 | 63 | 276 | 6.0 | 21.0 | 0.00 | 0.01 | 0.00 | 67 | 1009.6 |
| 20260504010636 | 63 | 18 | 7.0 | 21.0 | 0.00 | 0.03 | 0.00 | 67 | 1009.6 |
| 20260504005526 | 62 | 7 | 8.0 | 21.0 | 0.00 | 0.04 | 0.00 | 67 | 1009.8 |
| 20260504005023 | 62 | 20 | 8.0 | 17.0 | 0.00 | 0.04 | 0.00 | 68 | 1009.8 |
| 20260504004526 | 62 | 332 | 7.0 | 17.0 | 0.00 | 0.04 | 0.00 | 67 | 1010.0 |
| 20260504004017 | 63 | 2 | 7.0 | 17.0 | 0.00 | 0.05 | 0.00 | 67 | 1009.9 |
| 20260504002849 | 63 | 345 | 6.0 | 20.0 | 0.00 | 0.08 | 0.00 | 70 | 1009.7 |
| 20260504002346 | 62 | 341 | 7.0 | 20.0 | 0.00 | 0.11 | 0.00 | 70 | 1009.8 |
| 20260504001842 | 62 | 101 | 8.0 | 20.0 | 0.00 | 0.11 | 0.00 | 70 | 1009.8 |
| 20260504001336 | 62 | 39 | 7.0 | 19.0 | 0.00 | 0.14 | 0.00 | 70 | 1009.9 |
| 20260504000827 | 62 | 26 | 6.0 | 19.0 | 0.00 | 0.17 | 0.00 | 70 | 1009.9 |
| 20260503235049 | 62 | 42 | 6.0 | 17.0 | 0.00 | 0.24 | 0.00 | 71 | 1009.9 |
| 20260503234558 | 62 | 260 | 6.0 | 17.0 | 0.00 | 0.25 | 0.00 | 71 | 1009.9 |
| 20260503234104 | 62 | 354 | 6.0 | 17.0 | 0.00 | 0.26 | 0.00 | 72 | 1010.0 |
| 20260503233604 | 62 | 325 | 6.0 | 17.0 | 0.00 | 0.26 | 0.00 | 72 | 1010.0 |
| 20260503233110 | 61 | 334 | 5.0 | 16.0 | 0.00 | 0.27 | 0.00 | 72 | 1010.0 |
| 20260503232613 | 61 | 51 | 5.0 | 16.0 | 0.00 | 0.27 | 0.00 | 73 | 1010.0 |
| 20260503232100 | 61 | 39 | 6.0 | 16.0 | 0.00 | 0.27 | 0.00 | 73 | 1010.1 |
| 20260503231559 | 61 | 317 | 4.0 | 16.0 | 0.00 | 0.27 | 0.00 | 72 | 1010.1 |
| 20260503231109 | 61 | 314 | 3.0 | 10.0 | 0.00 | 0.27 | 0.00 | 73 | 1010.1 |
| 20260503225320 | 60 | 338 | 6.0 | 14.0 | 0.00 | 0.27 | 0.00 | 74 | 1010.2 |
| 20260503224806 | 60 | 356 | 5.0 | 12.0 | 0.00 | 0.27 | 0.00 | 74 | 1010.3 |
| 20260503224304 | 60 | 341 | 5.0 | 16.0 | 0.00 | 0.27 | 0.00 | 75 | 1010.2 |
| 20260503223806 | 60 | 2 | 6.0 | 16.0 | 0.00 | 0.27 | 0.00 | 75 | 1010.3 |
| 20260503223248 | 59 | 30 | 6.0 | 16.0 | 0.00 | 0.27 | 0.00 | 75 | 1010.3 |
| 20260503222110 | 59 | 343 | 4.0 | 13.0 | 0.00 | 0.27 | 0.00 | 75 | 1010.2 |
| 20260503220913 | 59 | 17 | 3.0 | 15.0 | 0.00 | 0.27 | 0.00 | 75 | 1010.3 |
| 20260503220412 | 58 | 313 | 4.0 | 15.0 | 0.00 | 0.27 | 0.00 | 76 | 1010.3 |
| 20260503215856 | 58 | 353 | 4.0 | 15.0 | 0.00 | 0.27 | 0.00 | 76 | 1010.3 |
| 20260503215342 | 58 | 44 | 4.0 | 11.0 | 0.00 | 0.27 | 0.00 | 76 | 1010.3 |
| 20260503214822 | 57 | 349 | 4.0 | 11.0 | 0.00 | 0.27 | 0.00 | 76 | 1010.3 |
| 20260503214308 | 57 | 68 | 3.0 | 10.0 | 0.00 | 0.27 | 0.00 | 76 | 1010.3 |
| 20260503213811 | 57 | 352 | 3.0 | 10.0 | 0.00 | 0.27 | 0.00 | 76 | 1010.2 |
| 20260503213252 | 57 | 50 | 3.0 | 10.0 | 0.00 | 0.27 | 0.00 | 75 | 1010.2 |
| 20260503212741 | 57 | 87 | 4.0 | 11.0 | 0.00 | 0.27 | 0.00 | 76 | 1010.2 |
| 20260503211549 | 57 | 25 | 4.0 | 11.0 | 0.00 | 0.27 | 0.00 | 77 | 1010.0 |
| 20260503211051 | 56 | 53 | 3.0 | 10.0 | 0.00 | 0.27 | 0.00 | 77 | 1010.1 |
| 20260503205316 | 56 | 42 | 2.0 | 7.0 | 0.00 | 0.27 | 0.00 | 78 | 1010.1 |
| 20260503204804 | 57 | 13 | 2.0 | 7.0 | 0.00 | 0.27 | 0.00 | 78 | 1010.0 |
| 20260503203021 | 56 | 1 | 3.0 | 13.0 | 0.00 | 0.27 | 0.00 | 79 | 1010.0 |
| 20260503202515 | 56 | 23 | 3.0 | 13.0 | 0.00 | 0.27 | 0.00 | 79 | 1009.9 |
| 20260503202022 | 56 | 354 | 2.0 | 8.0 | 0.00 | 0.27 | 0.00 | 80 | 1009.9 |
| 20260503201525 | 56 | 18 | 2.0 | 8.0 | 0.00 | 0.27 | 0.00 | 80 | 1009.9 |
| 20260503200336 | 56 | 8 | 2.0 | 7.0 | 0.00 | 0.27 | 0.00 | 81 | 1009.9 |
| 20260503195843 | 56 | 333 | 2.0 | 7.0 | 0.00 | 0.27 | 0.00 | 81 | 1009.8 |
| 20260503194740 | 56 | 358 | 1.0 | 8.0 | 0.00 | 0.27 | 0.00 | 81 | 1009.8 |
| 20260503194247 | 56 | 312 | 1.0 | 8.0 | 0.00 | 0.27 | 0.00 | 81 | 1010.0 |
| 20260503193129 | 56 | 16 | 2.0 | 8.0 | 0.00 | 0.27 | 0.00 | 81 | 1009.9 |
| 20260503192010 | 56 | 25 | 2.0 | 7.0 | 0.00 | 0.27 | 0.00 | 82 | 1009.9 |
| 20260503191508 | 56 | 43 | 2.0 | 7.0 | 0.00 | 0.27 | 0.00 | 82 | 1010.0 |
| 20260503191011 | 56 | 8 | 2.0 | 7.0 | 0.00 | 0.27 | 0.00 | 82 | 1010.1 |
| 20260503190514 | 56 | 299 | 2.0 | 7.0 | 0.00 | 0.27 | 0.00 | 81 | 1010.2 |
| 20260503190005 | 56 | 352 | 2.0 | 10.0 | 0.00 | 0.27 | 0.00 | 81 | 1010.2 |
| 20260503184854 | 56 | 2 | 4.0 | 11.0 | 0.00 | 0.27 | 0.00 | 81 | 1010.3 |
| 20260503184341 | 56 | 51 | 4.0 | 11.0 | 0.00 | 0.27 | 0.00 | 81 | 1010.3 |
| 20260503183848 | 56 | 333 | 3.0 | 11.0 | 0.00 | 0.27 | 0.00 | 81 | 1010.3 |
| 20260503181421 | 57 | 5 | 3.0 | 12.0 | 0.00 | 0.27 | 0.00 | 82 | 1010.4 |
| 20260503180921 | 57 | 40 | 4.0 | 12.0 | 0.00 | 0.27 | 0.00 | 82 | 1010.4 |
| 20260503180410 | 57 | 315 | 3.0 | 12.0 | 0.00 | 0.27 | 0.00 | 82 | 1010.5 |
| 20260503175918 | 57 | 4 | 3.0 | 11.0 | 0.00 | 0.27 | 0.00 | 82 | 1010.6 |
| 20260503175423 | 57 | 343 | 3.0 | 11.0 | 0.00 | 0.27 | 0.00 | 82 | 1010.6 |
| 20260503174927 | 57 | 315 | 4.0 | 11.0 | 0.00 | 0.27 | 0.00 | 82 | 1010.6 |
| 20260503174435 | 57 | 78 | 3.0 | 9.0 | 0.00 | 0.27 | 0.00 | 82 | 1010.7 |
| 20260503173314 | 57 | 66 | 3.0 | 12.0 | 0.00 | 0.27 | 0.00 | 82 | 1010.9 |
| 20260503172809 | 57 | 66 | 3.0 | 12.0 | 0.00 | 0.27 | 0.00 | 82 | 1010.9 |
| 20260503172312 | 57 | 349 | 3.0 | 12.0 | 0.00 | 0.27 | 0.00 | 82 | 1010.8 |
| 20260503171802 | 57 | 63 | 4.0 | 12.0 | 0.00 | 0.27 | 0.00 | 82 | 1010.9 |
| 20260503170624 | 57 | 54 | 3.0 | 8.0 | 0.00 | 0.27 | 0.00 | 82 | 1010.8 |
| 20260503170121 | 57 | 89 | 3.0 | 8.0 | 0.00 | 0.27 | 0.00 | 82 | 1010.9 |
| 20260503160200 | 57 | 335 | 3.0 | 10.0 | 0.00 | 0.27 | 0.00 | 81 | 1011.2 |
| 20260503150510 | 58 | 323 | 2.0 | 7.0 | 0.00 | 0.27 | 0.00 | 82 | 1011.2 |
| 20260503131345 | 60 | 304 | 3.0 | 9.0 | 0.00 | 0.27 | 0.27 | 78 | 1011.6 |
| 20260503130243 | 60 | 325 | 3.0 | 8.0 | 0.00 | 0.27 | 0.27 | 78 | 1011.3 |
| 20260503110538 | 61 | 359 | 3.0 | 8.0 | 0.00 | 0.27 | 0.27 | 75 | 1011.4 |
| 20260503081030 | 62 | 330 | 1.0 | 7.0 | 0.00 | 0.27 | 0.27 | 69 | 1010.1 |
| 20260503080539 | 62 | 331 | 1.0 | 6.0 | 0.00 | 0.27 | 0.27 | 69 | 1010.1 |
| 20260503072843 | 63 | 283 | 0.0 | 2.0 | 0.00 | 0.27 | 0.27 | 71 | 1010.0 |
| 20260503072327 | 64 | 307 | 1.0 | 6.0 | 0.00 | 0.27 | 0.27 | 72 | 1010.0 |
| 20260503071834 | 64 | 270 | 2.0 | 6.0 | 0.00 | 0.27 | 0.27 | 71 | 1010.0 |
| 20260503071342 | 64 | 272 | 1.0 | 6.0 | 0.00 | 0.27 | 0.27 | 72 | 1009.9 |
| 20260503070849 | 65 | 281 | 1.0 | 6.0 | 0.00 | 0.27 | 0.27 | 71 | 1009.9 |
| 20260503070348 | 65 | 231 | 2.0 | 6.0 | 0.00 | 0.27 | 0.27 | 69 | 1009.8 |